Kelso-Longview, WA
on Monday, November 26, 2012

Monday
Previous Day Next Day
Daily Summary
 ActualAverage (KSPB)Record (KSPB)
Temperature
Mean Temperature °F / °C °F / °C  
Max Temperature 48°F / 9°C °F / °C 55°F / 12°C (1999)
Min Temperature 28°F / -2°C °F / °C 25°F / -3°C (2007)
Degree Days
Heating Degree Days 27    
Month to date heating degree days  
Since 1 July heating degree days  
Cooling Degree Days 0    
Month to date cooling degree days  
Year to date cooling degree days  
Moisture
Dew Point 31°F / -1°C   
Average Humidity 83    
Maximum Humidity 93    
Minimum Humidity 62    
Precipitation
Precipitation 0.00 in / 0.00 cm in / cm 1.04 in / 2.64 cm (2006)
Month to date precipitation  
Year to date precipitation  
Wind
Wind Speed 1 mph / 2 km/h   
Max Wind Speed 7 mph / 11 km/h   
Max Gust Speed mph / km/h   
Visibility 10 miles / 15 kilometers   
Events     

Key: T is trace of precipitation, MM is missing value
Source: NWS Daily Summary
Time(PST)TemperatureDew PointHumidity Pressure Visibility Wind DirectionWind SpeedGust SpeedPrecipitationEvents Conditions
12:15 AM 33.8°F / 1.0°C 30.2°F / -1.0°C 87% 30.16 in / 1021.2 hPa 10.0 miles / 16.1 kilometers SE 3.5 mph / 5.6 km/h - N/A   Clear
12:35 AM 33.8°F / 1.0°C 30.2°F / -1.0°C 87% 30.16 in / 1021.2 hPa 10.0 miles / 16.1 kilometers Calm Calm - N/A   Clear
12:55 AM 33.8°F / 1.0°C 30.2°F / -1.0°C 87% 30.16 in / 1021.2 hPa 10.0 miles / 16.1 kilometers Calm Calm - N/A   Clear
1:15 AM 33.8°F / 1.0°C 30.2°F / -1.0°C 87% 30.16 in / 1021.2 hPa 10.0 miles / 16.1 kilometers SE 3.5 mph / 5.6 km/h - N/A   Clear
1:35 AM 33.8°F / 1.0°C 30.2°F / -1.0°C 87% 30.15 in / 1020.9 hPa 10.0 miles / 16.1 kilometers Calm Calm - N/A   Clear
1:55 AM 32.0°F / 0.0°C 28.4°F / -2.0°C 87% 30.15 in / 1020.9 hPa 10.0 miles / 16.1 kilometers Calm Calm - N/A   Clear
2:15 AM 33.8°F / 1.0°C 30.2°F / -1.0°C 87% 30.13 in / 1020.2 hPa 10.0 miles / 16.1 kilometers Calm Calm - N/A   Clear
2:35 AM 32.0°F / 0.0°C 28.4°F / -2.0°C 87% 30.13 in / 1020.2 hPa 10.0 miles / 16.1 kilometers Calm Calm - N/A   Clear
2:55 AM 32.0°F / 0.0°C 30.2°F / -1.0°C 93% 30.12 in / 1019.9 hPa 10.0 miles / 16.1 kilometers Calm Calm - N/A   Clear
3:15 AM 32.0°F / 0.0°C 30.2°F / -1.0°C 93% 30.12 in / 1019.9 hPa 10.0 miles / 16.1 kilometers Calm Calm - N/A   Partly Cloudy
3:35 AM 32.0°F / 0.0°C 30.2°F / -1.0°C 93% 30.12 in / 1019.9 hPa 10.0 miles / 16.1 kilometers Calm Calm - N/A   Scattered Clouds
3:55 AM 32.0°F / 0.0°C 28.4°F / -2.0°C 87% 30.12 in / 1019.9 hPa 10.0 miles / 16.1 kilometers Calm Calm - N/A   Partly Cloudy
4:15 AM 32.0°F / 0.0°C 28.4°F / -2.0°C 87% 30.12 in / 1019.9 hPa 10.0 miles / 16.1 kilometers Calm Calm - N/A   Clear
4:35 AM 30.2°F / -1.0°C 28.4°F / -2.0°C 93% 30.12 in / 1019.9 hPa 8.0 miles / 12.9 kilometers Calm Calm - N/A   Clear
4:55 AM 30.2°F / -1.0°C 28.4°F / -2.0°C 93% 30.12 in / 1019.9 hPa 9.0 miles / 14.5 kilometers Calm Calm - N/A   Clear
5:15 AM 30.2°F / -1.0°C 28.4°F / -2.0°C 93% 30.12 in / 1019.9 hPa 10.0 miles / 16.1 kilometers Calm Calm - N/A   Clear
5:35 AM 30.2°F / -1.0°C 26.6°F / -3.0°C 86% 30.11 in / 1019.5 hPa 6.0 miles / 9.7 kilometers Calm Calm - N/A   Clear
5:55 AM 28.4°F / -2.0°C 26.6°F / -3.0°C 93% 30.12 in / 1019.9 hPa 9.0 miles / 14.5 kilometers Calm Calm - N/A   Clear
6:15 AM 30.2°F / -1.0°C 26.6°F / -3.0°C 86% 30.12 in / 1019.9 hPa 9.0 miles / 14.5 kilometers Calm Calm - N/A   Clear
6:35 AM 30.2°F / -1.0°C 26.6°F / -3.0°C 86% 30.11 in / 1019.5 hPa 7.0 miles / 11.3 kilometers Calm Calm - N/A   Clear
6:55 AM 30.2°F / -1.0°C 28.4°F / -2.0°C 93% 30.11 in / 1019.5 hPa 5.0 miles / 8.0 kilometers Calm Calm - N/A   Clear
7:15 AM 30.2°F / -1.0°C 28.4°F / -2.0°C 93% 30.11 in / 1019.5 hPa 9.0 miles / 14.5 kilometers Calm Calm - N/A   Partly Cloudy
7:35 AM 30.2°F / -1.0°C 26.6°F / -3.0°C 86% 30.11 in / 1019.5 hPa 8.0 miles / 12.9 kilometers Calm Calm - N/A   Mostly Cloudy
7:55 AM 30.2°F / -1.0°C 28.4°F / -2.0°C 93% 30.11 in / 1019.5 hPa 9.0 miles / 14.5 kilometers Calm Calm - N/A   Mostly Cloudy
8:15 AM 32.0°F / 0.0°C 28.4°F / -2.0°C 87% 30.11 in / 1019.5 hPa 10.0 miles / 16.1 kilometers Calm Calm - N/A   Scattered Clouds
8:35 AM 32.0°F / 0.0°C 30.2°F / -1.0°C 93% 30.11 in / 1019.5 hPa 10.0 miles / 16.1 kilometers Calm Calm - N/A   Clear
8:55 AM 33.8°F / 1.0°C 28.4°F / -2.0°C 81% 30.11 in / 1019.5 hPa 8.0 miles / 12.9 kilometers Calm Calm - N/A   Clear
9:15 AM 33.8°F / 1.0°C 30.2°F / -1.0°C 87% 30.12 in / 1019.9 hPa 10.0 miles / 16.1 kilometers SE 3.5 mph / 5.6 km/h - N/A   Clear
9:35 AM 35.6°F / 2.0°C 32.0°F / 0.0°C 87% 30.12 in / 1019.9 hPa 10.0 miles / 16.1 kilometers Calm Calm - N/A   Clear
9:55 AM 37.4°F / 3.0°C 32.0°F / 0.0°C 81% 30.11 in / 1019.5 hPa 10.0 miles / 16.1 kilometers Calm Calm - N/A   Clear
10:15 AM 37.4°F / 3.0°C 32.0°F / 0.0°C 81% 30.11 in / 1019.5 hPa 10.0 miles / 16.1 kilometers North 5.8 mph / 9.3 km/h - N/A   Clear
10:35 AM 39.2°F / 4.0°C 33.8°F / 1.0°C 81% 30.10 in / 1019.2 hPa 10.0 miles / 16.1 kilometers NNW 5.8 mph / 9.3 km/h - N/A   Clear
10:55 AM 39.2°F / 4.0°C 33.8°F / 1.0°C 81% 30.10 in / 1019.2 hPa 10.0 miles / 16.1 kilometers NW 4.6 mph / 7.4 km/h - N/A   Clear
11:15 AM 39.2°F / 4.0°C 33.8°F / 1.0°C 81% 30.09 in / 1018.8 hPa 10.0 miles / 16.1 kilometers NNW 4.6 mph / 7.4 km/h - N/A   Clear
11:35 AM 42.8°F / 6.0°C 33.8°F / 1.0°C 70% 30.08 in / 1018.5 hPa 10.0 miles / 16.1 kilometers NW 3.5 mph / 5.6 km/h - N/A   Clear
11:55 AM 42.8°F / 6.0°C 33.8°F / 1.0°C 70% 30.07 in / 1018.2 hPa 10.0 miles / 16.1 kilometers NW 4.6 mph / 7.4 km/h - N/A   Clear
12:15 PM 42.8°F / 6.0°C 33.8°F / 1.0°C 70% 30.06 in / 1017.8 hPa 10.0 miles / 16.1 kilometers NNW 5.8 mph / 9.3 km/h - N/A   Clear
12:35 PM 44.6°F / 7.0°C 35.6°F / 2.0°C 71% 30.06 in / 1017.8 hPa 10.0 miles / 16.1 kilometers NNW 6.9 mph / 11.1 km/h - N/A   Clear
12:55 PM 44.6°F / 7.0°C 35.6°F / 2.0°C 71% 30.06 in / 1017.8 hPa 10.0 miles / 16.1 kilometers NNW 4.6 mph / 7.4 km/h - N/A   Clear
1:15 PM 44.6°F / 7.0°C 35.6°F / 2.0°C 71% 30.05 in / 1017.5 hPa 10.0 miles / 16.1 kilometers NW 3.5 mph / 5.6 km/h - N/A   Clear
1:35 PM 46.4°F / 8.0°C 33.8°F / 1.0°C 62% 30.04 in / 1017.2 hPa 10.0 miles / 16.1 kilometers NW 4.6 mph / 7.4 km/h - N/A   Clear
1:55 PM 46.4°F / 8.0°C 35.6°F / 2.0°C 66% 30.04 in / 1017.2 hPa 10.0 miles / 16.1 kilometers NW 3.5 mph / 5.6 km/h - N/A   Clear
2:15 PM 48.2°F / 9.0°C 35.6°F / 2.0°C 62% 30.04 in / 1017.2 hPa 10.0 miles / 16.1 kilometers North - - N/A   Clear
2:35 PM 48.2°F / 9.0°C 35.6°F / 2.0°C 62% 30.03 in / 1016.8 hPa 10.0 miles / 16.1 kilometers NNW 4.6 mph / 7.4 km/h - N/A   Clear
2:55 PM 48.2°F / 9.0°C 35.6°F / 2.0°C 62% 30.03 in / 1016.8 hPa 10.0 miles / 16.1 kilometers NNW 5.8 mph / 9.3 km/h - N/A   Clear
3:15 PM 48.2°F / 9.0°C 35.6°F / 2.0°C 62% 30.03 in / 1016.8 hPa 10.0 miles / 16.1 kilometers NNW 5.8 mph / 9.3 km/h - N/A   Clear
3:35 PM 46.4°F / 8.0°C 35.6°F / 2.0°C 66% 30.03 in / 1016.8 hPa 10.0 miles / 16.1 kilometers North 6.9 mph / 11.1 km/h - N/A   Clear
3:55 PM 46.4°F / 8.0°C 35.6°F / 2.0°C 66% 30.02 in / 1016.5 hPa 10.0 miles / 16.1 kilometers NNW 4.6 mph / 7.4 km/h - N/A   Clear
4:15 PM 44.6°F / 7.0°C 35.6°F / 2.0°C 71% 30.03 in / 1016.8 hPa 10.0 miles / 16.1 kilometers NNW 3.5 mph / 5.6 km/h - N/A   Clear
4:35 PM 42.8°F / 6.0°C 35.6°F / 2.0°C 76% 30.02 in / 1016.5 hPa 10.0 miles / 16.1 kilometers Calm Calm - N/A   Clear
4:55 PM 41.0°F / 5.0°C 35.6°F / 2.0°C 81% 30.03 in / 1016.8 hPa 10.0 miles / 16.1 kilometers Calm Calm - N/A   Clear
5:15 PM 39.2°F / 4.0°C 35.6°F / 2.0°C 87% 30.03 in / 1016.8 hPa 10.0 miles / 16.1 kilometers Calm Calm - N/A   Clear
5:35 PM 39.2°F / 4.0°C 35.6°F / 2.0°C 87% 30.03 in / 1016.8 hPa 10.0 miles / 16.1 kilometers Calm Calm - N/A   Clear
5:55 PM 37.4°F / 3.0°C 33.8°F / 1.0°C 87% 30.03 in / 1016.8 hPa 10.0 miles / 16.1 kilometers Calm Calm - N/A   Clear
6:15 PM 37.4°F / 3.0°C 33.8°F / 1.0°C 87% 30.03 in / 1016.8 hPa 10.0 miles / 16.1 kilometers Calm Calm - N/A   Clear
6:35 PM 37.4°F / 3.0°C 33.8°F / 1.0°C 87% 30.04 in / 1017.2 hPa 10.0 miles / 16.1 kilometers Calm Calm - N/A   Clear
6:55 PM 35.6°F / 2.0°C 33.8°F / 1.0°C 93% 30.05 in / 1017.5 hPa 10.0 miles / 16.1 kilometers Calm Calm - N/A   Clear
7:15 PM 35.6°F / 2.0°C 32.0°F / 0.0°C 87% 30.05 in / 1017.5 hPa 10.0 miles / 16.1 kilometers Calm Calm - N/A   Clear
7:35 PM 35.6°F / 2.0°C 32.0°F / 0.0°C 87% 30.05 in / 1017.5 hPa 10.0 miles / 16.1 kilometers Calm Calm - N/A   Clear
7:55 PM 33.8°F / 1.0°C 30.2°F / -1.0°C 87% 30.06 in / 1017.8 hPa 10.0 miles / 16.1 kilometers Calm Calm - N/A   Clear
8:15 PM 35.6°F / 2.0°C 33.8°F / 1.0°C 93% 30.06 in / 1017.8 hPa 10.0 miles / 16.1 kilometers Calm Calm - N/A   Clear
8:35 PM 33.8°F / 1.0°C 30.2°F / -1.0°C 87% 30.06 in / 1017.8 hPa 10.0 miles / 16.1 kilometers North 3.5 mph / 5.6 km/h - N/A   Clear
8:55 PM 33.8°F / 1.0°C 30.2°F / -1.0°C 87% 30.06 in / 1017.8 hPa 8.0 miles / 12.9 kilometers Calm Calm - N/A   Clear
9:15 PM 33.8°F / 1.0°C 30.2°F / -1.0°C 87% 30.08 in / 1018.5 hPa 10.0 miles / 16.1 kilometers Calm Calm - N/A   Clear
9:35 PM 33.8°F / 1.0°C 30.2°F / -1.0°C 87% 30.08 in / 1018.5 hPa 10.0 miles / 16.1 kilometers Calm Calm - N/A   Clear
9:55 PM 33.8°F / 1.0°C 30.2°F / -1.0°C 87% 30.09 in / 1018.8 hPa 10.0 miles / 16.1 kilometers Calm Calm - N/A   Clear
10:15 PM 33.8°F / 1.0°C 30.2°F / -1.0°C 87% 30.08 in / 1018.5 hPa 10.0 miles / 16.1 kilometers Calm Calm - N/A   Clear
10:35 PM 32.0°F / 0.0°C 28.4°F / -2.0°C 87% 30.08 in / 1018.5 hPa 10.0 miles / 16.1 kilometers Calm Calm - N/A   Clear
10:55 PM 32.0°F / 0.0°C 30.2°F / -1.0°C 93% 30.09 in / 1018.8 hPa 7.0 miles / 11.3 kilometers Calm Calm - N/A   Clear
11:15 PM 32.0°F / 0.0°C 28.4°F / -2.0°C 87% 30.09 in / 1018.8 hPa 10.0 miles / 16.1 kilometers Calm Calm - N/A   Clear
11:35 PM 32.0°F / 0.0°C 28.4°F / -2.0°C 87% 30.09 in / 1018.8 hPa 5.0 miles / 8.0 kilometers Calm Calm - N/A   Clear
11:55 PM 30.2°F / -1.0°C 28.4°F / -2.0°C 93% 30.10 in / 1019.2 hPa 8.0 miles / 12.9 kilometers Calm Calm - N/A   Clear
Moon Phase
Nov. 26 Nov. 28 Dec. 06 Dec. 13 Dec. 20
Sunrise:07:28 AM (PST) Moon Rise:03:28 PM (PST)11/26
Sunset:04:29 PM (PST) Moon Set:05:40 AM (PST)11/26

Copyright © 2014 The Weather Underground, Inc.